Tracking 19576 objects as of 17-Feb-2019
HD Live streaming from Space Station
objects crossing your sky now

SL-16 DEB

Track SL-16 DEB now!
10-day predictions


NORAD ID: 39901
Int'l Code: 1993-016CB
Perigee: 762.7 km
Apogee: 965.3 km
Inclination: 71.0 °
Period: 102.1 minutes
Semi major axis: 7235 km
RCS: Unknown
Launch date: March 26, 1993
Source: Commonwealth of Independent States (former USSR) (CIS)
Launch site: TYURATAM MISSILE AND SPACE COMPLEX (TTMTR)

Note: This is SATELLITE DEBRIS
aabbcc
Your satellite tracking list
Your tracking list is empty




NASA's NSSDC Master Catalog

Two Line Element Set (TLE):
1 39901U 93016CB  19045.57681930 +.00001287 +00000-0 +68013-3 0  9998
2 39901 070.9754 019.7136 0140028 062.0044 299.5163 14.10729619241972
Source of the keplerian elements: AFSPC